Overview Statistics Trail Chart Weather Telemetry Raw packets
 

This is the latest recevied weather packets stored in our database for station/object JE7UPL-13. If no packets are shown the sender has not sent any weather packets the latest 10 day(s).

<< 29 30 31 32 33 34 35 >>
Time Temp. Humidity Pressure Rain* Wind** Luminosity Snow
1787890506 26.11° C 57% 1003.9 hPa 0 mm - - -
1787889607 27.22° C 52% 1003.8 hPa 0 mm - - -
1787888706 27.22° C 51% 1004.1 hPa 0 mm - - -
1787887806 27.22° C 46% 1003.9 hPa 0 mm - - -
1787886906 26.67° C 50% 1003.7 hPa 0 mm - - -
1787886012 26.67° C 52% 1003.4 hPa 0 mm - - -
1787885107 27.22° C 50% 1003.4 hPa 0 mm - - -
1787884206 26.11° C 56% 1003.6 hPa 0 mm - - -
1787883306 26.11° C 54% 1003.7 hPa 0 mm - - -
1787882407 26.67° C 51% 1003.7 hPa 0 mm - - -
1787881507 26.67° C 51% 1003.8 hPa 0 mm - - -
1787880608 27.22° C 51% 1003.8 hPa 0 mm - - -
1787879706 26.67° C 54% 1004 hPa 0 mm - - -
1787878806 26.11° C 56% 1004.1 hPa 0 mm - - -
1787877906 26.11° C 60% 1004 hPa 0 mm - - -
1787877006 26.67° C 61% 1004 hPa 0 mm - - -
1787876106 25.56° C 67% 1003.6 hPa 0 mm - - -
1787875212 25° C 71% 1003.4 hPa 0 mm - - -
1787874306 26.67° C 63% 1003.2 hPa 0 mm - - -
1787873407 26.11° C 64% 1003.2 hPa 0 mm - - -
1787872506 26.11° C 60% 1002.9 hPa 0 mm - - -
1787871606 26.11° C 61% 1002.8 hPa 0 mm - - -
1787870706 25.56° C 65% 1002.2 hPa 0 mm - - -
1787869806 25° C 69% 1002.1 hPa 0 mm - - -
1787868906 23.89° C 73% 1002.2 hPa 0 mm - - -

* Rain latest hour (hover to see other rain measurements)
** Current wind speed in m/s (hover to see current wind gust speed)